Time,TemperatureF,DewpointF,PressureIn,WindDirection,WindDirectionDegrees,WindSpeedMPH,WindSpeedGustMPH,Humidity,HourlyPrecipIn,Conditions,Clouds,dailyrainin,SoftwareType,DateUTC
2013-04-01 00:05:00,33.3,14.2,29.69,NW,310,3.0,13.0,45,0.00,,,-99.99,Weather View 32 v60,2013-04-01 04:05:00,
2013-04-01 00:10:00,33.3,14.2,29.69,WNW,300,4.0,13.0,45,0.00,,,-99.99,Weather View 32 v60,2013-04-01 04:10:00,
2013-04-01 00:15:00,33.3,14.2,29.69,NNW,330,3.0,13.0,45,0.00,,,-99.99,Weather View 32 v60,2013-04-01 04:15:00,
2013-04-01 00:20:00,33.3,14.2,29.69,NNW,328,4.0,13.0,45,0.00,,,-99.99,Weather View 32 v60,2013-04-01 04:20:00,
2013-04-01 00:25:00,33.3,14.2,29.69,North,0,5.0,13.0,45,0.00,,,-99.99,Weather View 32 v60,2013-04-01 04:25:00,
2013-04-01 00:30:00,33.3,14.2,29.69,NNW,334,6.0,13.0,45,0.00,,,-99.99,Weather View 32 v60,2013-04-01 04:30:00,
2013-04-01 00:35:00,33.3,13.7,29.72,NNW,334,4.0,10.0,44,0.00,,,-99.99,Weather View 32 v60,2013-04-01 04:35:00,
2013-04-01 00:40:00,33.1,12.5,29.72,NNW,334,5.0,10.0,42,0.00,,,-99.99,Weather View 32 v60,2013-04-01 04:40:00,
2013-04-01 00:45:00,33.1,11.9,29.72,NNW,327,4.0,10.0,41,0.00,,,-99.99,Weather View 32 v60,2013-04-01 04:45:00,
2013-04-01 00:50:00,32.9,11.2,29.72,NW,312,11.0,13.0,40,0.00,,,-99.99,Weather View 32 v60,2013-04-01 04:50:00,
2013-04-01 01:00:00,32.5,10.9,29.72,NNW,331,4.0,13.0,40,0.00,,,-99.99,Weather View 32 v60,2013-04-01 05:00:00,
2013-04-01 01:05:00,32.5,10.9,29.72,NNW,343,5.0,13.0,40,0.00,,,-99.99,Weather View 32 v60,2013-04-01 05:05:00,
2013-04-01 01:10:00,32.4,10.7,29.72,NNW,328,3.0,13.0,40,0.00,,,-99.99,Weather View 32 v60,2013-04-01 05:10:00,
2013-04-01 01:15:00,32.2,10.0,29.72,NNW,342,4.0,13.0,39,0.00,,,-99.99,Weather View 32 v60,2013-04-01 05:15:00,
2013-04-01 01:20:00,32.2,10.0,29.72,North,0,4.0,13.0,39,0.00,,,-99.99,Weather View 32 v60,2013-04-01 05:20:00,
2013-04-01 01:25:00,32.2,10.0,29.72,West,279,10.0,13.0,39,0.00,,,-99.99,Weather View 32 v60,2013-04-01 05:25:00,
2013-04-01 01:30:00,32.2,9.4,29.72,West,270,8.0,13.0,38,0.00,,,-99.99,Weather View 32 v60,2013-04-01 05:30:00,
2013-04-01 01:40:00,31.8,7.9,29.72,NW,326,5.0,13.0,36,0.00,,,-99.99,Weather View 32 v60,2013-04-01 05:40:00,
2013-04-01 01:45:00,31.6,7.7,29.72,NNW,335,9.0,15.0,36,0.00,,,-99.99,Weather View 32 v60,2013-04-01 05:45:00,
2013-04-01 01:50:00,31.5,6.9,29.75,WNW,299,10.0,15.0,35,0.00,,,-99.99,Weather View 32 v60,2013-04-01 05:50:00,
2013-04-01 01:55:00,31.3,6.1,29.75,NW,313,4.0,15.0,34,0.00,,,-99.99,Weather View 32 v60,2013-04-01 05:55:00,
2013-04-01 02:00:00,31.1,6.0,29.75,WNW,296,8.0,15.0,34,0.00,,,-99.99,Weather View 32 v60,2013-04-01 06:00:00,
2013-04-01 02:05:00,30.7,5.7,29.75,WNW,294,14.0,15.0,34,0.00,,,-99.99,Weather View 32 v60,2013-04-01 06:05:00,
2013-04-01 02:10:00,30.2,5.2,29.75,NW,321,6.0,18.0,34,0.00,,,-99.99,Weather View 32 v60,2013-04-01 06:10:00,
2013-04-01 02:15:00,30.0,4.4,29.75,NNW,339,4.0,18.0,33,0.00,,,-99.99,Weather View 32 v60,2013-04-01 06:15:00,
2013-04-01 02:20:00,29.8,4.2,29.75,NW,316,5.0,18.0,33,0.00,,,-99.99,Weather View 32 v60,2013-04-01 06:20:00,
2013-04-01 02:25:00,29.5,3.9,29.75,NNW,333,4.0,18.0,33,0.00,,,-99.99,Weather View 32 v60,2013-04-01 06:25:00,
2013-04-01 02:30:00,29.5,3.9,29.75,NW,312,6.0,18.0,33,0.00,,,-99.99,Weather View 32 v60,2013-04-01 06:30:00,
2013-04-01 02:35:00,29.3,3.7,29.75,WNW,295,11.0,18.0,33,0.00,,,-99.99,Weather View 32 v60,2013-04-01 06:35:00,
2013-04-01 02:40:00,29.1,3.6,29.75,NW,308,4.0,18.0,33,0.00,,,-99.99,Weather View 32 v60,2013-04-01 06:40:00,
2013-04-01 02:45:00,28.9,3.4,29.75,NNW,338,4.0,18.0,33,0.00,,,-99.99,Weather View 32 v60,2013-04-01 06:45:00,
2013-04-01 02:50:00,28.8,3.3,29.75,NW,323,4.0,18.0,33,0.00,,,-99.99,Weather View 32 v60,2013-04-01 06:50:00,
2013-04-01 02:55:00,28.8,3.3,29.75,NNW,344,5.0,18.0,33,0.00,,,-99.99,Weather View 32 v60,2013-04-01 06:55:00,
2013-04-01 03:00:00,28.6,3.1,29.75,NW,315,3.0,18.0,33,0.00,,,-99.99,Weather View 32 v60,2013-04-01 07:00:00,
2013-04-01 03:05:00,28.6,3.1,29.78,NW,307,4.0,18.0,33,0.00,,,-99.99,Weather View 32 v60,2013-04-01 07:05:00,
2013-04-01 03:10:00,28.4,3.6,29.78,NW,326,4.0,16.0,34,0.00,,,-99.99,Weather View 32 v60,2013-04-01 07:10:00,
2013-04-01 03:15:00,28.4,3.6,29.78,NW,310,5.0,13.0,34,0.00,,,-99.99,Weather View 32 v60,2013-04-01 07:15:00,
2013-04-01 03:20:00,28.2,3.4,29.78,NW,315,8.0,13.0,34,0.00,,,-99.99,Weather View 32 v60,2013-04-01 07:20:00,
2013-04-01 03:30:00,28.2,3.4,29.78,WNW,297,6.0,11.0,34,0.00,,,-99.99,Weather View 32 v60,2013-04-01 07:30:00,
2013-04-01 03:35:00,28.2,4.1,29.78,WNW,297,4.0,11.0,35,0.00,,,-99.99,Weather View 32 v60,2013-04-01 07:35:00,
2013-04-01 03:40:00,28.0,3.9,29.78,NW,323,4.0,11.0,35,0.00,,,-99.99,Weather View 32 v60,2013-04-01 07:40:00,
2013-04-01 03:45:00,28.0,3.9,29.78,NW,312,6.0,11.0,35,0.00,,,-99.99,Weather View 32 v60,2013-04-01 07:45:00,
2013-04-01 03:50:00,27.9,3.7,29.78,WNW,303,5.0,11.0,35,0.00,,,-99.99,Weather View 32 v60,2013-04-01 07:50:00,
2013-04-01 03:55:00,27.9,3.7,29.78,NW,307,3.0,11.0,35,0.00,,,-99.99,Weather View 32 v60,2013-04-01 07:55:00,
2013-04-01 04:00:00,27.7,3.6,29.78,NW,315,4.0,11.0,35,0.00,,,-99.99,Weather View 32 v60,2013-04-01 08:00:00,
2013-04-01 04:05:00,27.7,3.0,29.78,West,277,6.0,11.0,34,0.00,,,-99.99,Weather View 32 v60,2013-04-01 08:05:00,
2013-04-01 04:10:00,27.5,2.8,29.78,WNW,302,8.0,12.0,34,0.00,,,-99.99,Weather View 32 v60,2013-04-01 08:10:00,
2013-04-01 04:15:00,27.5,2.8,29.78,WNW,300,11.0,17.0,34,0.00,,,-99.99,Weather View 32 v60,2013-04-01 08:15:00,
2013-04-01 04:20:00,27.5,2.8,29.78,WNW,297,6.0,17.0,34,0.00,,,-99.99,Weather View 32 v60,2013-04-01 08:20:00,
2013-04-01 04:30:00,27.7,3.0,29.78,WNW,303,6.0,17.0,34,0.00,,,-99.99,Weather View 32 v60,2013-04-01 08:30:00,
2013-04-01 04:35:00,27.7,3.0,29.81,NW,306,4.0,17.0,34,0.00,,,-99.99,Weather View 32 v60,2013-04-01 08:35:00,
2013-04-01 04:40:00,27.7,3.0,29.81,NW,313,6.0,17.0,34,0.00,,,-99.99,Weather View 32 v60,2013-04-01 08:40:00,
2013-04-01 04:45:00,27.7,3.0,29.81,NW,320,6.0,17.0,34,0.00,,,-99.99,Weather View 32 v60,2013-04-01 08:45:00,
2013-04-01 04:50:00,27.7,3.0,29.81,WNW,303,6.0,17.0,34,0.00,,,-99.99,Weather View 32 v60,2013-04-01 08:50:00,
2013-04-01 04:55:00,27.7,3.0,29.81,WNW,291,11.0,17.0,34,0.00,,,-99.99,Weather View 32 v60,2013-04-01 08:55:00,
2013-04-01 05:00:00,27.7,3.0,29.81,NW,305,4.0,17.0,34,0.00,,,-99.99,Weather View 32 v60,2013-04-01 09:00:00,
2013-04-01 05:05:00,27.5,2.8,29.81,WNW,299,8.0,17.0,34,0.00,,,-99.99,Weather View 32 v60,2013-04-01 09:05:00,
2013-04-01 05:10:00,27.5,2.8,29.81,NW,311,10.0,17.0,34,0.00,,,-99.99,Weather View 32 v60,2013-04-01 09:10:00,
2013-04-01 05:15:00,27.5,2.8,29.81,WNW,284,8.0,15.0,34,0.00,,,-99.99,Weather View 32 v60,2013-04-01 09:15:00,
2013-04-01 05:20:00,27.5,2.8,29.81,NW,311,6.0,15.0,34,0.00,,,-99.99,Weather View 32 v60,2013-04-01 09:20:00,
2013-04-01 05:25:00,27.5,3.4,29.81,WNW,298,9.0,15.0,35,0.00,,,-99.99,Weather View 32 v60,2013-04-01 09:25:00,
2013-04-01 05:30:00,27.5,3.4,29.81,NNW,333,13.0,15.0,35,0.00,,,-99.99,Weather View 32 v60,2013-04-01 09:30:00,
2013-04-01 05:40:00,27.3,3.3,29.84,WNW,290,15.0,15.0,35,0.00,,,-99.99,Weather View 32 v60,2013-04-01 09:40:00,
2013-04-01 05:45:00,27.1,3.1,29.84,NW,306,7.0,15.0,35,0.00,,,-99.99,Weather View 32 v60,2013-04-01 09:45:00,
2013-04-01 05:50:00,27.1,3.1,29.84,WNW,292,11.0,15.0,35,0.00,,,-99.99,Weather View 32 v60,2013-04-01 09:50:00,
2013-04-01 05:55:00,27.1,3.1,29.84,WNW,288,11.0,15.0,35,0.00,,,-99.99,Weather View 32 v60,2013-04-01 09:55:00,
2013-04-01 06:00:00,27.0,2.9,29.84,NW,306,6.0,15.0,35,0.00,,,-99.99,Weather View 32 v60,2013-04-01 10:00:00,
2013-04-01 06:05:00,27.0,2.9,29.84,NW,319,7.0,15.0,35,0.00,,,-99.99,Weather View 32 v60,2013-04-01 10:05:00,
2013-04-01 06:10:00,27.0,2.9,29.84,NW,319,5.0,15.0,35,0.00,,,-99.99,Weather View 32 v60,2013-04-01 10:10:00,
2013-04-01 06:15:00,27.0,2.9,29.84,NW,313,13.0,15.0,35,0.00,,,-99.99,Weather View 32 v60,2013-04-01 10:15:00,
2013-04-01 06:20:00,26.8,2.8,29.84,WNW,303,17.0,17.0,35,0.00,,,-99.99,Weather View 32 v60,2013-04-01 10:20:00,
2013-04-01 06:25:00,26.8,2.8,29.84,NW,306,10.0,17.0,35,0.00,,,-99.99,Weather View 32 v60,2013-04-01 10:25:00,
2013-04-01 06:30:00,26.6,3.8,29.84,WNW,289,6.0,17.0,37,0.00,,,-99.99,Weather View 32 v60,2013-04-01 10:30:00,
2013-04-01 06:35:00,26.4,4.2,29.84,WNW,299,11.0,17.0,38,0.00,,,-99.99,Weather View 32 v60,2013-04-01 10:35:00,
2013-04-01 06:40:00,26.2,4.6,29.84,WNW,291,8.0,17.0,39,0.00,,,-99.99,Weather View 32 v60,2013-04-01 10:40:00,
2013-04-01 06:45:00,26.2,4.6,29.84,NW,305,8.0,17.0,39,0.00,,,-99.99,Weather View 32 v60,2013-04-01 10:45:00,
2013-04-01 06:50:00,26.1,4.5,29.87,WNW,284,6.0,17.0,39,0.00,,,-99.99,Weather View 32 v60,2013-04-01 10:50:00,
2013-04-01 06:55:00,26.1,3.9,29.87,NW,305,8.0,17.0,38,0.00,,,-99.99,Weather View 32 v60,2013-04-01 10:55:00,
2013-04-01 07:05:00,25.9,3.2,29.87,WNW,297,11.0,17.0,37,0.00,,,-99.99,Weather View 32 v60,2013-04-01 11:05:00,
2013-04-01 07:10:00,25.7,2.4,29.87,WNW,287,8.0,17.0,36,0.00,,,-99.99,Weather View 32 v60,2013-04-01 11:10:00,
2013-04-01 07:15:00,25.7,2.4,29.87,WNW,297,6.0,17.0,36,0.00,,,-99.99,Weather View 32 v60,2013-04-01 11:15:00,
2013-04-01 07:20:00,25.5,2.3,29.87,WNW,290,6.0,17.0,36,0.00,,,-99.99,Weather View 32 v60,2013-04-01 11:20:00,
2013-04-01 07:25:00,25.5,2.3,29.87,WNW,292,8.0,13.0,36,0.00,,,-99.99,Weather View 32 v60,2013-04-01 11:25:00,
2013-04-01 07:30:00,25.5,2.3,29.87,WNW,289,8.0,13.0,36,0.00,,,-99.99,Weather View 32 v60,2013-04-01 11:30:00,
2013-04-01 07:35:00,25.3,2.1,29.87,WNW,289,9.0,13.0,36,0.00,,,-99.99,Weather View 32 v60,2013-04-01 11:35:00,
2013-04-01 07:40:00,25.3,2.1,29.87,WNW,302,8.0,13.0,36,0.00,,,-99.99,Weather View 32 v60,2013-04-01 11:40:00,
2013-04-01 07:45:00,25.3,2.7,29.87,WNW,290,8.0,13.0,37,0.00,,,-99.99,Weather View 32 v60,2013-04-01 11:45:00,
2013-04-01 07:55:00,25.3,2.7,29.90,NW,308,11.0,14.0,37,0.00,,,-99.99,Weather View 32 v60,2013-04-01 11:55:00,
2013-04-01 08:00:00,25.5,3.4,29.90,WNW,287,11.0,14.0,38,0.00,,,-99.99,Weather View 32 v60,2013-04-01 12:00:00,
2013-04-01 08:10:00,25.7,3.6,29.90,WNW,283,8.0,14.0,38,0.00,,,-99.99,Weather View 32 v60,2013-04-01 12:10:00,
2013-04-01 08:20:00,25.9,3.8,29.90,NW,308,12.0,15.0,38,0.00,,,-99.99,Weather View 32 v60,2013-04-01 12:20:00,
2013-04-01 08:25:00,26.1,3.9,29.90,WNW,301,8.0,15.0,38,0.00,,,-99.99,Weather View 32 v60,2013-04-01 12:25:00,
2013-04-01 08:30:00,26.1,3.9,29.90,NW,304,10.0,15.0,38,0.00,,,-99.99,Weather View 32 v60,2013-04-01 12:30:00,
2013-04-01 08:35:00,26.4,3.7,29.90,WNW,299,11.0,20.0,37,0.00,,,-99.99,Weather View 32 v60,2013-04-01 12:35:00,
2013-04-01 08:45:00,27.0,2.9,29.90,WNW,303,11.0,20.0,35,0.00,,,-99.99,Weather View 32 v60,2013-04-01 12:45:00,
2013-04-01 08:55:00,27.1,3.7,29.90,WNW,290,14.0,20.0,36,0.00,,,-99.99,Weather View 32 v60,2013-04-01 12:55:00,
2013-04-01 09:00:00,27.3,3.9,29.90,WNW,293,13.0,20.0,36,0.00,,,-99.99,Weather View 32 v60,2013-04-01 13:00:00,
2013-04-01 09:05:00,27.5,3.4,29.90,NNW,344,6.0,20.0,35,0.00,,,-99.99,Weather View 32 v60,2013-04-01 13:05:00,
2013-04-01 09:10:00,27.3,3.3,29.90,WNW,294,13.0,20.0,35,0.00,,,-99.99,Weather View 32 v60,2013-04-01 13:10:00,
2013-04-01 09:15:00,27.5,3.4,29.90,WNW,293,8.0,20.0,35,0.00,,,-99.99,Weather View 32 v60,2013-04-01 13:15:00,
2013-04-01 09:20:00,27.3,3.3,29.93,NW,310,6.0,20.0,35,0.00,,,-99.99,Weather View 32 v60,2013-04-01 13:20:00,
2013-04-01 09:30:00,27.5,2.8,29.93,WNW,300,10.0,21.0,34,0.00,,,-99.99,Weather View 32 v60,2013-04-01 13:30:00,
2013-04-01 09:35:00,27.7,3.0,29.93,NW,315,10.0,21.0,34,0.00,,,-99.99,Weather View 32 v60,2013-04-01 13:35:00,
2013-04-01 09:40:00,27.7,3.0,29.93,NW,308,6.0,21.0,34,0.00,,,-99.99,Weather View 32 v60,2013-04-01 13:40:00,
2013-04-01 09:50:00,27.9,2.5,29.93,NW,312,6.0,21.0,33,0.00,,,-99.99,Weather View 32 v60,2013-04-01 13:50:00,
2013-04-01 09:55:00,27.9,2.5,29.93,WNW,291,15.0,21.0,33,0.00,,,-99.99,Weather View 32 v60,2013-04-01 13:55:00,
2013-04-01 10:00:00,27.7,2.3,29.93,NNW,337,9.0,21.0,33,0.00,,,-99.99,Weather View 32 v60,2013-04-01 14:00:00,
2013-04-01 10:10:00,28.0,2.6,29.93,WNW,301,15.0,21.0,33,0.00,,,-99.99,Weather View 32 v60,2013-04-01 14:10:00,
2013-04-01 10:15:00,28.0,2.6,29.93,WNW,297,16.0,21.0,33,0.00,,,-99.99,Weather View 32 v60,2013-04-01 14:15:00,
2013-04-01 10:25:00,27.7,2.3,29.93,West,281,15.0,22.0,33,0.00,,,-99.99,Weather View 32 v60,2013-04-01 14:25:00,
2013-04-01 10:30:00,27.7,2.3,29.93,NW,304,11.0,22.0,33,0.00,,,-99.99,Weather View 32 v60,2013-04-01 14:30:00,
2013-04-01 10:35:00,27.7,1.6,29.93,WNW,303,13.0,22.0,32,0.00,,,-99.99,Weather View 32 v60,2013-04-01 14:35:00,
2013-04-01 10:45:00,27.9,1.8,29.93,NW,313,6.0,22.0,32,0.00,,,-99.99,Weather View 32 v60,2013-04-01 14:45:00,
2013-04-01 10:55:00,28.4,2.3,29.93,NW,314,6.0,22.0,32,0.00,,,-99.99,Weather View 32 v60,2013-04-01 14:55:00,
2013-04-01 11:05:00,28.6,1.8,29.93,NNW,329,6.0,22.0,31,0.00,,,-99.99,Weather View 32 v60,2013-04-01 15:05:00,
2013-04-01 11:15:00,28.4,1.6,29.93,WNW,295,7.0,22.0,31,0.00,,,-99.99,Weather View 32 v60,2013-04-01 15:15:00,
2013-04-01 11:20:00,28.4,1.6,29.96,NW,304,8.0,22.0,31,0.00,,,-99.99,Weather View 32 v60,2013-04-01 15:20:00,
2013-04-01 11:25:00,28.6,1.8,29.96,West,262,20.0,22.0,31,0.00,,,-99.99,Weather View 32 v60,2013-04-01 15:25:00,
2013-04-01 11:35:00,28.9,1.4,29.96,NW,308,11.0,22.0,30,0.00,,,-99.99,Weather View 32 v60,2013-04-01 15:35:00,
2013-04-01 11:40:00,28.9,1.4,29.96,WNW,289,14.0,22.0,30,0.00,,,-99.99,Weather View 32 v60,2013-04-01 15:40:00,
2013-04-01 11:45:00,29.3,1.7,29.96,WNW,296,17.0,22.0,30,0.00,,,-99.99,Weather View 32 v60,2013-04-01 15:45:00,
2013-04-01 11:55:00,29.3,1.7,29.96,West,275,14.0,22.0,30,0.00,,,-99.99,Weather View 32 v60,2013-04-01 15:55:00,
2013-04-01 12:00:00,29.5,1.8,29.96,NNW,338,3.0,22.0,30,0.00,,,-99.99,Weather View 32 v60,2013-04-01 16:00:00,
2013-04-01 12:05:00,29.5,1.8,29.96,NW,314,8.0,22.0,30,0.00,,,-99.99,Weather View 32 v60,2013-04-01 16:05:00,
2013-04-01 12:15:00,29.5,0.4,29.96,WNW,291,14.0,23.0,28,0.00,,,-99.99,Weather View 32 v60,2013-04-01 16:15:00,
2013-04-01 12:20:00,29.7,0.5,29.96,North,353,5.0,23.0,28,0.00,,,-99.99,Weather View 32 v60,2013-04-01 16:20:00,
2013-04-01 12:25:00,30.0,2.3,29.96,NW,312,6.0,23.0,30,0.00,,,-99.99,Weather View 32 v60,2013-04-01 16:25:00,
2013-04-01 12:35:00,30.2,2.5,29.96,NNW,332,11.0,23.0,30,0.00,,,-99.99,Weather View 32 v60,2013-04-01 16:35:00,
2013-04-01 12:40:00,30.0,2.3,29.96,WNW,295,13.0,23.0,30,0.00,,,-99.99,Weather View 32 v60,2013-04-01 16:40:00,
2013-04-01 12:45:00,30.0,0.8,29.96,WNW,292,15.0,23.0,28,0.00,,,-99.99,Weather View 32 v60,2013-04-01 16:45:00,
2013-04-01 12:50:00,30.0,0.8,29.96,WNW,295,15.0,23.0,28,0.00,,,-99.99,Weather View 32 v60,2013-04-01 16:50:00,
2013-04-01 13:00:00,30.0,2.3,29.96,WNW,293,15.0,23.0,30,0.00,,,-99.99,Weather View 32 v60,2013-04-01 17:00:00,
2013-04-01 13:05:00,30.2,1.0,29.96,WNW,290,11.0,23.0,28,0.00,,,-99.99,Weather View 32 v60,2013-04-01 17:05:00,
2013-04-01 13:10:00,30.2,1.0,29.96,West,276,16.0,23.0,28,0.00,,,-99.99,Weather View 32 v60,2013-04-01 17:10:00,
2013-04-01 13:20:00,30.2,1.0,29.96,WNW,284,16.0,26.0,28,0.00,,,-99.99,Weather View 32 v60,2013-04-01 17:20:00,
2013-04-01 13:25:00,29.8,0.7,29.96,WNW,289,16.0,26.0,28,0.00,,,-99.99,Weather View 32 v60,2013-04-01 17:25:00,
2013-04-01 13:30:00,29.8,0.7,29.96,WNW,284,12.0,26.0,28,0.00,,,-99.99,Weather View 32 v60,2013-04-01 17:30:00,
2013-04-01 13:37:00,30.0,0.8,29.96,WNW,297,13.0,26.0,28,0.00,,,-99.99,Weather View 32 v60,2013-04-01 17:37:00,
2013-04-01 13:45:00,30.0,0.8,29.96,West,264,11.0,26.0,28,0.00,,,-99.99,Weather View 32 v60,2013-04-01 17:45:00,
2013-04-01 13:50:00,30.2,1.0,29.99,WNW,295,13.0,26.0,28,0.00,,,-99.99,Weather View 32 v60,2013-04-01 17:50:00,
2013-04-01 13:55:00,30.2,-1.4,29.99,WNW,297,13.0,26.0,25,0.00,,,-99.99,Weather View 32 v60,2013-04-01 17:55:00,
2013-04-01 14:05:00,30.4,1.1,29.99,WNW,294,5.0,27.0,28,0.00,,,-99.99,Weather View 32 v60,2013-04-01 18:05:00,
2013-04-01 14:10:00,30.6,-1.1,29.99,WNW,291,11.0,27.0,25,0.00,,,-99.99,Weather View 32 v60,2013-04-01 18:10:00,
2013-04-01 14:15:00,30.4,-1.3,29.99,West,275,17.0,27.0,25,0.00,,,-99.99,Weather View 32 v60,2013-04-01 18:15:00,
2013-04-01 14:20:00,30.4,-1.3,29.99,WNW,298,15.0,27.0,25,0.00,,,-99.99,Weather View 32 v60,2013-04-01 18:20:00,
2013-04-01 14:25:00,30.4,-1.3,29.99,WNW,293,15.0,27.0,25,0.00,,,-99.99,Weather View 32 v60,2013-04-01 18:25:00,
2013-04-01 14:30:00,30.6,-1.1,29.99,WNW,286,11.0,27.0,25,0.00,,,-99.99,Weather View 32 v60,2013-04-01 18:30:00,
2013-04-01 14:35:00,30.6,-1.1,29.99,West,280,9.0,27.0,25,0.00,,,-99.99,Weather View 32 v60,2013-04-01 18:35:00,
2013-04-01 14:40:00,30.6,-1.1,29.99,NW,310,11.0,27.0,25,0.00,,,-99.99,Weather View 32 v60,2013-04-01 18:40:00,
2013-04-01 14:45:00,30.7,-1.0,29.99,WNW,288,11.0,27.0,25,0.00,,,-99.99,Weather View 32 v60,2013-04-01 18:45:00,
2013-04-01 14:55:00,30.6,-1.1,29.99,WNW,291,12.0,27.0,25,0.00,,,-99.99,Weather View 32 v60,2013-04-01 18:55:00,
2013-04-01 15:00:00,30.4,-1.3,29.99,WNW,302,11.0,27.0,25,0.00,,,-99.99,Weather View 32 v60,2013-04-01 19:00:00,
2013-04-01 15:05:00,30.4,-1.3,29.99,WNW,293,6.0,18.0,25,0.00,,,-99.99,Weather View 32 v60,2013-04-01 19:05:00,
2013-04-01 15:10:00,30.2,-1.4,29.99,WNW,293,15.0,18.0,25,0.00,,,-99.99,Weather View 32 v60,2013-04-01 19:10:00,
2013-04-01 15:15:00,30.2,-1.4,29.99,WNW,284,15.0,18.0,25,0.00,,,-99.99,Weather View 32 v60,2013-04-01 19:15:00,
2013-04-01 15:25:00,30.2,-1.4,29.99,WNW,299,8.0,21.0,25,0.00,,,-99.99,Weather View 32 v60,2013-04-01 19:25:00,
2013-04-01 15:35:00,30.4,-1.3,29.99,WNW,295,13.0,21.0,25,0.00,,,-99.99,Weather View 32 v60,2013-04-01 19:35:00,
2013-04-01 15:40:00,30.6,-1.1,29.99,WNW,302,8.0,21.0,25,0.00,,,-99.99,Weather View 32 v60,2013-04-01 19:40:00,
2013-04-01 15:45:00,30.4,-1.3,29.99,NW,313,7.0,21.0,25,0.00,,,-99.99,Weather View 32 v60,2013-04-01 19:45:00,
2013-04-01 15:50:00,30.2,-1.4,29.99,NW,324,17.0,21.0,25,0.00,,,-99.99,Weather View 32 v60,2013-04-01 19:50:00,
2013-04-01 15:55:00,30.0,-1.6,29.99,NW,322,11.0,21.0,25,0.00,,,-99.99,Weather View 32 v60,2013-04-01 19:55:00,
2013-04-01 16:00:00,30.2,-1.4,29.99,NNW,336,6.0,21.0,25,0.00,,,-99.99,Weather View 32 v60,2013-04-01 20:00:00,
2013-04-01 16:05:00,30.2,-1.4,29.99,NW,310,13.0,21.0,25,0.00,,,-99.99,Weather View 32 v60,2013-04-01 20:05:00,
2013-04-01 16:10:00,30.4,-1.3,29.99,WNW,291,12.0,21.0,25,0.00,,,-99.99,Weather View 32 v60,2013-04-01 20:10:00,
2013-04-01 16:15:00,30.9,-0.8,29.99,NW,312,11.0,21.0,25,0.00,,,-99.99,Weather View 32 v60,2013-04-01 20:15:00,
2013-04-01 16:20:00,30.9,-0.8,29.99,North,353,8.0,21.0,25,0.00,,,-99.99,Weather View 32 v60,2013-04-01 20:20:00,
2013-04-01 16:30:00,30.7,-1.0,29.99,WNW,293,9.0,21.0,25,0.00,,,-99.99,Weather View 32 v60,2013-04-01 20:30:00,
2013-04-01 16:35:00,31.1,-0.6,29.99,West,278,9.0,21.0,25,0.00,,,-99.99,Weather View 32 v60,2013-04-01 20:35:00,
2013-04-01 16:40:00,31.5,-0.3,29.99,WNW,302,17.0,23.0,25,0.00,,,-99.99,Weather View 32 v60,2013-04-01 20:40:00,
2013-04-01 16:45:00,31.6,-0.2,29.99,WNW,286,15.0,23.0,25,0.00,,,-99.99,Weather View 32 v60,2013-04-01 20:45:00,
2013-04-01 16:50:00,31.5,-0.3,29.99,NNE,12,6.0,23.0,25,0.00,,,-99.99,Weather View 32 v60,2013-04-01 20:50:00,
2013-04-01 16:55:00,31.1,-0.6,29.99,WNW,301,15.0,23.0,25,0.00,,,-99.99,Weather View 32 v60,2013-04-01 20:55:00,
2013-04-01 17:00:00,30.7,-1.0,29.99,WNW,295,7.0,23.0,25,0.00,,,-99.99,Weather View 32 v60,2013-04-01 21:00:00,
2013-04-01 17:05:00,30.6,-1.1,29.99,WNW,291,10.0,23.0,25,0.00,,,-99.99,Weather View 32 v60,2013-04-01 21:05:00,
2013-04-01 17:15:00,31.1,-0.6,29.99,West,279,8.0,23.0,25,0.00,,,-99.99,Weather View 32 v60,2013-04-01 21:15:00,
2013-04-01 17:20:00,30.9,-0.8,29.99,NW,307,12.0,23.0,25,0.00,,,-99.99,Weather View 32 v60,2013-04-01 21:20:00,
2013-04-01 17:30:00,30.6,-1.1,29.99,WNW,303,6.0,23.0,25,0.00,,,-99.99,Weather View 32 v60,2013-04-01 21:30:00,
2013-04-01 17:35:00,30.4,-1.3,29.99,WNW,300,12.0,23.0,25,0.00,,,-99.99,Weather View 32 v60,2013-04-01 21:35:00,
2013-04-01 17:45:00,30.2,-1.4,29.99,NW,321,8.0,17.0,25,0.00,,,-99.99,Weather View 32 v60,2013-04-01 21:45:00,
2013-04-01 17:50:00,30.2,-1.4,29.99,NW,320,11.0,17.0,25,0.00,,,-99.99,Weather View 32 v60,2013-04-01 21:50:00,
2013-04-01 17:55:00,30.4,1.1,29.99,NW,307,6.0,17.0,28,0.00,,,-99.99,Weather View 32 v60,2013-04-01 21:55:00,
2013-04-01 18:00:00,30.2,1.0,29.99,West,269,11.0,17.0,28,0.00,,,-99.99,Weather View 32 v60,2013-04-01 22:00:00,
2013-04-01 18:05:00,30.2,1.0,29.99,WNW,298,9.0,17.0,28,0.00,,,-99.99,Weather View 32 v60,2013-04-01 22:05:00,
2013-04-01 18:10:00,30.4,1.1,29.99,West,276,11.0,17.0,28,0.00,,,-99.99,Weather View 32 v60,2013-04-01 22:10:00,
2013-04-01 18:20:00,30.4,-1.3,30.02,WNW,287,13.0,19.0,25,0.00,,,-99.99,Weather View 32 v60,2013-04-01 22:20:00,
2013-04-01 18:25:00,30.2,-1.4,30.02,NW,304,11.0,19.0,25,0.00,,,-99.99,Weather View 32 v60,2013-04-01 22:25:00,
2013-04-01 18:30:00,30.2,1.0,30.02,WNW,294,15.0,19.0,28,0.00,,,-99.99,Weather View 32 v60,2013-04-01 22:30:00,
2013-04-01 18:35:00,30.4,1.1,30.02,NW,318,8.0,19.0,28,0.00,,,-99.99,Weather View 32 v60,2013-04-01 22:35:00,
2013-04-01 18:40:00,30.6,1.3,30.02,WNW,291,9.0,19.0,28,0.00,,,-99.99,Weather View 32 v60,2013-04-01 22:40:00,
2013-04-01 18:50:00,30.4,1.1,30.02,NW,313,13.0,19.0,28,0.00,,,-99.99,Weather View 32 v60,2013-04-01 22:50:00,
2013-04-01 18:55:00,30.2,1.0,30.02,WNW,301,13.0,19.0,28,0.00,,,-99.99,Weather View 32 v60,2013-04-01 22:55:00,
2013-04-01 19:00:00,30.2,1.0,30.02,WNW,298,13.0,19.0,28,0.00,,,-99.99,Weather View 32 v60,2013-04-01 23:00:00,
2013-04-01 19:05:00,30.0,0.8,30.02,WNW,301,13.0,19.0,28,0.00,,,-99.99,Weather View 32 v60,2013-04-01 23:05:00,
2013-04-01 19:10:00,30.0,0.8,30.02,WNW,300,9.0,19.0,28,0.00,,,-99.99,Weather View 32 v60,2013-04-01 23:10:00,
2013-04-01 19:15:00,30.0,0.8,30.02,WNW,302,5.0,19.0,28,0.00,,,-99.99,Weather View 32 v60,2013-04-01 23:15:00,
2013-04-01 19:20:00,29.8,0.7,30.02,WNW,288,12.0,18.0,28,0.00,,,-99.99,Weather View 32 v60,2013-04-01 23:20:00,
2013-04-01 19:30:00,29.7,0.5,30.02,West,278,18.0,18.0,28,0.00,,,-99.99,Weather View 32 v60,2013-04-01 23:30:00,
2013-04-01 19:35:00,29.5,0.4,30.02,WNW,296,11.0,18.0,28,0.00,,,-99.99,Weather View 32 v60,2013-04-01 23:35:00,
2013-04-01 19:40:00,29.5,0.4,30.02,West,259,13.0,18.0,28,0.00,,,-99.99,Weather View 32 v60,2013-04-01 23:40:00,
2013-04-01 19:50:00,29.5,0.4,30.02,WNW,291,9.0,18.0,28,0.00,,,-99.99,Weather View 32 v60,2013-04-01 23:50:00,
2013-04-01 19:55:00,29.3,0.2,30.02,West,274,13.0,18.0,28,0.00,,,-99.99,Weather View 32 v60,2013-04-01 23:55:00,
2013-04-01 20:00:00,29.1,0.1,30.02,WNW,294,8.0,18.0,28,0.00,,,-99.99,Weather View 32 v60,2013-04-02 00:00:00,
2013-04-01 20:05:00,28.9,-0.1,30.02,WNW,288,9.0,18.0,28,0.00,,,-99.99,Weather View 32 v60,2013-04-02 00:05:00,
2013-04-01 20:15:00,28.8,-0.3,30.02,NW,308,7.0,18.0,28,0.00,,,-99.99,Weather View 32 v60,2013-04-02 00:15:00,
2013-04-01 20:25:00,28.6,1.1,30.02,West,279,5.0,18.0,30,0.00,,,-99.99,Weather View 32 v60,2013-04-02 00:25:00,
2013-04-01 20:30:00,28.4,1.6,30.02,WNW,294,8.0,18.0,31,0.00,,,-99.99,Weather View 32 v60,2013-04-02 00:30:00,
2013-04-01 20:35:00,28.4,1.6,30.02,WNW,289,6.0,16.0,31,0.00,,,-99.99,Weather View 32 v60,2013-04-02 00:35:00,
2013-04-01 20:40:00,28.2,1.4,30.02,West,277,6.0,16.0,31,0.00,,,-99.99,Weather View 32 v60,2013-04-02 00:40:00,
2013-04-01 20:45:00,28.2,1.4,30.02,WNW,290,9.0,16.0,31,0.00,,,-99.99,Weather View 32 v60,2013-04-02 00:45:00,
2013-04-01 20:50:00,28.0,1.3,30.02,West,278,5.0,15.0,31,0.00,,,-99.99,Weather View 32 v60,2013-04-02 00:50:00,
2013-04-01 21:00:00,27.9,1.1,30.02,West,271,5.0,13.0,31,0.00,,,-99.99,Weather View 32 v60,2013-04-02 01:00:00,
2013-04-01 21:05:00,27.7,1.0,30.02,WSW,258,4.0,13.0,31,0.00,,,-99.99,Weather View 32 v60,2013-04-02 01:05:00,
2013-04-01 21:10:00,27.7,1.0,30.02,West,274,4.0,12.0,31,0.00,,,-99.99,Weather View 32 v60,2013-04-02 01:10:00,
2013-04-01 21:15:00,27.5,0.8,30.02,West,265,4.0,12.0,31,0.00,,,-99.99,Weather View 32 v60,2013-04-02 01:15:00,
2013-04-01 21:20:00,27.3,0.6,30.02,WSW,258,4.0,10.0,31,0.00,,,-99.99,Weather View 32 v60,2013-04-02 01:20:00,
2013-04-01 21:25:00,27.1,0.5,30.02,West,272,3.0,10.0,31,0.00,,,-99.99,Weather View 32 v60,2013-04-02 01:25:00,
2013-04-01 21:30:00,27.1,0.5,30.02,West,268,4.0,10.0,31,0.00,,,-99.99,Weather View 32 v60,2013-04-02 01:30:00,
2013-04-01 21:40:00,27.0,0.3,30.05,WSW,258,3.0,9.0,31,0.00,,,-99.99,Weather View 32 v60,2013-04-02 01:40:00,
2013-04-01 21:45:00,27.0,0.3,30.05,WSW,247,4.0,9.0,31,0.00,,,-99.99,Weather View 32 v60,2013-04-02 01:45:00,
2013-04-01 21:50:00,27.0,0.3,30.05,WSW,253,3.0,9.0,31,0.00,,,-99.99,Weather View 32 v60,2013-04-02 01:50:00,
2013-04-01 21:55:00,27.0,0.3,30.05,WSW,255,3.0,6.0,31,0.00,,,-99.99,Weather View 32 v60,2013-04-02 01:55:00,
2013-04-01 22:00:00,27.0,0.3,30.05,West,262,4.0,6.0,31,0.00,,,-99.99,Weather View 32 v60,2013-04-02 02:00:00,
2013-04-01 22:05:00,26.8,0.2,30.05,WSW,238,3.0,6.0,31,0.00,,,-99.99,Weather View 32 v60,2013-04-02 02:05:00,
2013-04-01 22:10:00,26.8,0.2,30.05,WSW,241,3.0,6.0,31,0.00,,,-99.99,Weather View 32 v60,2013-04-02 02:10:00,
2013-04-01 22:20:00,26.6,0.0,30.05,WSW,239,0.0,6.0,31,0.00,,,-99.99,Weather View 32 v60,2013-04-02 02:20:00,
2013-04-01 22:25:00,26.6,0.0,30.05,WSW,239,0.0,6.0,31,0.00,,,-99.99,Weather View 32 v60,2013-04-02 02:25:00,
2013-04-01 22:30:00,26.6,0.0,30.05,WSW,239,0.0,6.0,31,0.00,,,-99.99,Weather View 32 v60,2013-04-02 02:30:00,
2013-04-01 22:35:00,26.4,0.5,30.05,WSW,239,0.0,6.0,32,0.00,,,-99.99,Weather View 32 v60,2013-04-02 02:35:00,
2013-04-01 22:40:00,26.2,0.4,30.05,WSW,239,0.0,5.0,32,0.00,,,-99.99,Weather View 32 v60,2013-04-02 02:40:00,
2013-04-01 22:50:00,26.1,0.2,30.05,WSW,239,0.0,5.0,32,0.00,,,-99.99,Weather View 32 v60,2013-04-02 02:50:00,
2013-04-01 22:55:00,26.1,0.2,30.05,WSW,239,0.0,5.0,32,0.00,,,-99.99,Weather View 32 v60,2013-04-02 02:55:00,
2013-04-01 23:05:00,25.7,-0.1,30.05,WSW,239,0.0,5.0,32,0.00,,,-99.99,Weather View 32 v60,2013-04-02 03:05:00,
2013-04-01 23:10:00,25.5,-0.3,30.05,WSW,239,3.0,4.0,32,0.00,,,-99.99,Weather View 32 v60,2013-04-02 03:10:00,
2013-04-01 23:15:00,25.3,-0.4,30.05,West,259,4.0,4.0,32,0.00,,,-99.99,Weather View 32 v60,2013-04-02 03:15:00,
2013-04-01 23:20:00,25.3,-0.4,30.05,WSW,244,0.0,4.0,32,0.00,,,-99.99,Weather View 32 v60,2013-04-02 03:20:00,
2013-04-01 23:25:00,25.2,-0.6,30.05,WSW,244,0.0,4.0,32,0.00,,,-99.99,Weather View 32 v60,2013-04-02 03:25:00,
2013-04-01 23:35:00,25.0,-0.7,30.05,WSW,256,0.0,4.0,32,0.00,,,-99.99,Weather View 32 v60,2013-04-02 03:35:00,
2013-04-01 23:40:00,24.8,-0.9,30.05,West,263,0.0,4.0,32,0.00,,,-99.99,Weather View 32 v60,2013-04-02 03:40:00,
2013-04-01 23:45:00,24.6,-1.1,30.05,WSW,258,0.0,4.0,32,0.00,,,-99.99,Weather View 32 v60,2013-04-02 03:45:00,
2013-04-01 23:50:00,24.6,-1.1,30.05,WSW,250,0.0,4.0,32,0.00,,,-99.99,Weather View 32 v60,2013-04-02 03:50:00,
2013-04-01 23:55:00,24.6,-1.1,30.05,West,259,3.0,5.0,32,0.00,,,-99.99,Weather View 32 v60,2013-04-02 03:55:00,